Mazatlan Airport, Mexico

1:19 AM MDT on September 21, 2017 (GMT -0600)
Gen Rafael Buelna International

Weather History for MMMZ - November, 2011

Change the Weather History Date:

Friday, November 18, 2011

  Actual Average Record
Temperature  
Mean Temperature 70 °F -  
Max Temperature 80 °F 84 °F 89 °F (1997)
Min Temperature 60 °F 60 °F 53 °F (2010)
Cooling Degree Days 5    
Growing Degree Days 20 (Base 50)    
Moisture  
Dew Point 62 °F    
Average Humidity 77    
Maximum Humidity 94    
Minimum Humidity 58    
Precipitation  
Precipitation 0.00 in - - ()
Sea Level Pressure  
Sea Level Pressure 29.90 in    
Wind  
Wind Speed 6 mph ()    
Max Wind Speed 13 mph    
Max Gust Speed -    
Visibility 10.9 miles    
Events      
Averages and records for this station are not official NWS values.
T = Trace of Precipitation, MM = Missing Value Source: Averaged Metar Reports

Daily Weather History Graph

Daily Weather History Graph

Search for Another Location

Airport or City:

Trip Planner

Search our weather history database for the weather conditions in past years. The results will help you decide how hot, cold, wet, or windy it might be!

Date:

Astronomy

Nov. 18, 2011 Rise Set
Actual Time 6:20 AM MST 5:19 PM MST
Civil Twilight 5:56 AM MST 5:43 PM MST
Nautical Twilight 5:29 AM MST 6:10 PM MST
Astronomical Twilight 5:02 AM MST 6:37 PM MST
Moon No Moon Rise 12:22 PM MST (11/18)
Length of Visible Light 11h 46m
Length of Day
10h 59m
Waning Gibbous, 48% of the Moon is Illuminated
Nov 18
Waning Gibbous
Nov 24
New
Dec 2
First Quarter
Dec 10
Full
Dec 17
Last Quarter

Hourly Weather History & Observations

Time (MST) Temp. Heat Index Dew Point Humidity Pressure Visibility Wind Dir Wind Speed Gust Speed Precip Events Conditions
12:43 AM 62.6 °F - 57.2 °F 82% 29.89 in 10.0 mi North 6.9 mph - N/A   Clear
1:51 AM 62.6 °F - 60.8 °F 94% 29.89 in 10.0 mi North 5.8 mph - N/A   Clear
3:51 AM 62.6 °F - 59.0 °F 88% 29.89 in 10.0 mi North 5.8 mph - N/A   Clear
4:51 AM 62.6 °F - 59.0 °F 88% 29.91 in 10.0 mi North 4.6 mph - N/A   Clear
5:49 AM 62.6 °F - 57.2 °F 82% 29.91 in 10.0 mi NNE 5.8 mph - N/A   Clear
6:40 AM 60.8 °F - 57.2 °F 88% 29.93 in 6.0 mi North 6.9 mph - N/A   Clear
7:40 AM 64.4 °F - 62.6 °F 94% 29.94 in 8.0 mi North 5.8 mph - N/A   Clear
8:44 AM 69.8 °F - 66.2 °F 88% 29.95 in 10.0 mi NE 4.6 mph - N/A   Clear
9:44 AM 75.2 °F - 66.2 °F 73% 29.95 in 10.0 mi East 5.8 mph - N/A   Clear
10:41 AM 78.8 °F - 64.4 °F 61% 29.96 in 12.0 mi SW 8.1 mph - N/A   Clear
11:42 AM 80.6 °F 82.3 °F 64.4 °F 58% 29.93 in 12.0 mi West 9.2 mph - N/A   Clear
12:45 PM 80.6 °F 82.7 °F 66.2 °F 61% 29.89 in 12.0 mi SW 11.5 mph - N/A   Clear
1:40 PM 80.6 °F 82.3 °F 64.4 °F 58% 29.87 in 12.0 mi SW 10.4 mph - N/A   Clear
2:45 PM 80.6 °F 82.3 °F 64.4 °F 58% 29.85 in 15.0 mi WSW 12.7 mph - N/A   Clear
3:43 PM 78.8 °F - 64.4 °F 61% 29.84 in 15.0 mi WSW 10.4 mph - N/A   Clear
4:42 PM 75.2 °F - 62.6 °F 65% 29.86 in 15.0 mi WSW 11.5 mph - N/A   Clear
5:42 PM 71.6 °F - 62.6 °F 73% 29.86 in 12.0 mi West 6.9 mph - N/A   Clear
6:51 PM 69.8 °F - 62.6 °F 78% 29.88 in 10.0 mi North 5.8 mph - N/A   Clear
7:40 PM 68.0 °F - 62.6 °F 83% 29.89 in 10.0 mi North 8.1 mph - N/A   Clear
8:40 PM 66.2 °F - 62.6 °F 88% 29.90 in 10.0 mi North 4.6 mph - N/A   Clear
9:50 PM 64.4 °F - 60.8 °F 88% 29.92 in 10.0 mi West 5.8 mph - N/A   Clear
11:41 PM 62.6 °F - 59.0 °F 88% 29.91 in 10.0 mi North 5.8 mph - N/A   Clear